Location: Ferques
(50.8300°N, 1.7599°E)
Time: 20:11:43
(UTC+00:00)

PKM - Pass Details

Date: 19 May 2025
Orbit: 410 x 13726 km, 55.3° (Epoch: 21 June)

Event Time Altitude Azimuth Distance (km) Brightness Sun altitude
Rises 22:16:45 0° 242° (WSW) 2,431 7.1 -16.3°
Reaches altitude 10° 22:18:36 10° 242° (WSW) 1,479 6.0 -16.4°
Maximum altitude 22:21:18 89° 153° (SSE) 464 3.3 -16.6°
Drops below altitude 10° 22:25:25 10° 64° (ENE) 2,240 7.0 -16.8°
Sets 22:28:56 0° 64° (ENE) 3,983 8.3 -17.0°
